Dublin, VA

10:19 PM EST on November 16, 2019 (GMT -0500)
New River Valley

Weather History for KPSK - October, 2019

Change the Weather History Date:

Sunday, October 20, 2019

  Actual Average (KBCB) Record (KBCB)
Temperature  
Mean Temperature 58 °F -  
Max Temperature 67 °F 62 °F 82 °F (1984)
Min Temperature 48 °F 35 °F 18 °F (1972)
Degree Days  
Heating Degree Days 8    
Growing Degree Days 8 (Base 50)    
Moisture  
Dew Point 53 °F    
Average Humidity 93    
Maximum Humidity 100    
Minimum Humidity 73    
Precipitation  
Precipitation 1.19 in - - ()
Sea Level Pressure  
Sea Level Pressure 29.93 in    
Wind  
Wind Speed 5 mph (NNW)    
Max Wind Speed 12 mph    
Max Gust Speed -    
Visibility 7 miles    
Events Rain    
Averages and records for this station are not official NWS values.
T = Trace of Precipitation, MM = Missing Value Source: NWS Daily Summary

Daily Weather History Graph

Daily Weather History Graph

Search for Another Location

Airport or City:

Astronomy

Oct. 20, 2019 Rise Set
Actual Time 7:34 AM EDT 6:39 PM EDT
Civil Twilight 7:08 AM EDT 7:05 PM EDT
Nautical Twilight 6:38 AM EDT 7:36 PM EDT
Astronomical Twilight 6:08 AM EDT 8:06 PM EDT
Moon 11:52 PM EDT (10/20) 1:56 PM EDT (10/20)
Length of Visible Light 11h 57m
Length of Day
11h 04m
Waning Gibbous, 59% of the Moon is Illuminated
Oct 20
Waning Gibbous
Oct 21
Last Quarter
Oct 27
New
Nov 4
First Quarter
Nov 12
Full

Hourly Weather History & Observations

Time (EDT) Temp. Dew Point Humidity Pressure Visibility Wind Dir Wind Speed Gust Speed Precip Events Conditions
12:15 AM 49.1 °F 49.1 °F 100% 29.98 in 10.0 mi ENE 4.6 mph - N/A   Drizzle
12:35 AM 49.1 °F 49.1 °F 100% 29.98 in 5.0 mi East 3.5 mph - 0.01 in Rain Rain
12:55 AM 48.7 °F 48.7 °F 100% 29.98 in 2.5 mi ENE 4.6 mph - 0.05 in   Overcast
1:15 AM 48.6 °F 48.6 °F 100% 29.96 in 2.0 mi ENE 6.9 mph - 0.04 in   Overcast
1:35 AM 48.4 °F 48.4 °F 100% 29.94 in 2.0 mi ENE 6.9 mph - 0.09 in   Overcast
1:55 AM 48.2 °F 48.2 °F 100% 29.93 in 5.0 mi ENE 4.6 mph - 0.12 in Rain Rain
2:15 AM 48.2 °F 48.2 °F 100% 29.93 in 3.0 mi NNE 3.5 mph - 0.03 in Rain Light Rain
2:35 AM 48.2 °F 48.2 °F 100% 29.92 in 2.0 mi NNE 5.8 mph - 0.09 in Rain Light Rain
2:55 AM 48.2 °F 48.2 °F 100% 29.92 in 2.5 mi Calm Calm - 0.16 in   Overcast
3:15 AM 48.2 °F 48.2 °F 100% 29.91 in 1.2 mi NNE 4.6 mph - 0.10 in   Unknown
3:35 AM 48.2 °F 48.2 °F 100% 29.89 in 2.0 mi ENE 5.8 mph - 0.15 in Rain Light Rain
3:55 AM 48.4 °F 48.4 °F 100% 29.88 in 1.8 mi ENE 5.8 mph - 0.23 in   Overcast
4:15 AM 48.4 °F 48.4 °F 100% 29.88 in 1.5 mi NE 3.5 mph - 0.07 in   Overcast
4:35 AM 48.4 °F 48.4 °F 100% 29.87 in 1.5 mi ENE 3.5 mph - 0.16 in   Overcast
4:55 AM 48.4 °F 48.4 °F 100% 29.86 in 2.0 mi East 3.5 mph - 0.23 in   Overcast
5:15 AM 48.4 °F 48.4 °F 100% 29.87 in 1.2 mi Calm Calm - 0.06 in   Overcast
5:35 AM 48.4 °F 48.4 °F 100% 29.87 in 1.0 mi SE 3.5 mph - 0.19 in   Unknown
5:55 AM 48.4 °F 48.4 °F 100% 29.87 in 1.5 mi Calm Calm - 0.25 in   Overcast
6:15 AM 48.4 °F 48.4 °F 100% 29.87 in 4.0 mi ENE 4.6 mph - 0.02 in Rain Rain
6:35 AM 48.6 °F 48.6 °F 100% 29.87 in 4.0 mi NE 4.6 mph - 0.04 in Rain Rain
6:55 AM 48.6 °F 48.6 °F 100% 29.87 in 1.2 mi North 3.5 mph - 0.10 in Rain Rain
7:15 AM 48.6 °F 48.6 °F 100% 29.87 in 5.0 mi Calm Calm - 0.01 in   Heavy Drizzle
7:35 AM 48.6 °F 48.6 °F 100% 29.87 in 5.0 mi Calm Calm - 0.03 in Rain Heavy Rain
7:55 AM 48.6 °F 48.6 °F 100% 29.87 in 3.0 mi Calm Calm - 0.03 in   Heavy Drizzle
8:15 AM 49.1 °F 49.1 °F 100% 29.87 in 4.0 mi Calm Calm - N/A   Drizzle
8:35 AM 49.5 °F 49.5 °F 100% 29.87 in 4.0 mi Calm Calm - N/A   Drizzle
8:55 AM 50.0 °F 50.0 °F 100% 29.88 in 2.0 mi NNW 3.5 mph - 0.01 in Rain Light Rain
9:15 AM 50.4 °F 50.4 °F 100% 29.88 in 1.8 mi Calm Calm - N/A   Drizzle
9:35 AM 51.8 °F 51.8 °F 100% 29.89 in 2.0 mi NW 4.6 mph - N/A Rain Light Rain
9:55 AM 52.3 °F 52.3 °F 100% 29.89 in 2.5 mi NNW 4.6 mph - N/A Rain Light Rain
10:15 AM 52.7 °F 52.7 °F 100% 29.89 in 2.0 mi NNW 8.1 mph - N/A   Overcast
10:35 AM 52.7 °F 52.3 °F 99% 29.90 in 5.0 mi NNW 5.8 mph - N/A   Overcast
10:55 AM 53.8 °F 53.1 °F 97% 29.91 in 10.0 mi NNW 6.9 mph - N/A   Overcast
11:15 AM 55.0 °F 54.0 °F 96% 29.91 in 7.0 mi NNW 5.8 mph - N/A   Overcast
11:35 AM 55.4 °F 54.0 °F 95% 29.91 in 7.0 mi NW 8.1 mph - 0.01 in   Overcast
11:55 AM 55.6 °F 54.1 °F 95% 29.91 in 10.0 mi NW 9.2 mph - 0.01 in   Overcast
12:15 PM 56.5 °F 54.9 °F 94% 29.92 in 10.0 mi NW 8.1 mph - N/A   Overcast
12:35 PM 57.4 °F 54.7 °F 91% 29.92 in 10.0 mi NNW 9.2 mph - N/A   Overcast
12:55 PM 57.7 °F 54.7 °F 90% 29.92 in 10.0 mi NNW 9.2 mph - N/A   Overcast
1:15 PM 58.3 °F 55.6 °F 91% 29.92 in 10.0 mi NW 6.9 mph - N/A   Overcast
1:35 PM 59.4 °F 55.4 °F 87% 29.92 in 10.0 mi NW 8.1 mph - N/A   Overcast
1:55 PM 59.9 °F 55.4 °F 85% 29.92 in 10.0 mi NW 6.9 mph - N/A   Overcast
2:15 PM 61.0 °F 55.6 °F 82% 29.91 in 10.0 mi Calm Calm - N/A   Overcast
2:35 PM 63.7 °F 57.0 °F 79% 29.90 in 10.0 mi North 4.6 mph - N/A   Scattered Clouds
2:55 PM 65.5 °F 57.4 °F 75% 29.90 in 10.0 mi North 6.9 mph - N/A   Scattered Clouds
3:15 PM 65.8 °F 57.9 °F 76% 29.90 in 10.0 mi WNW 10.4 mph - N/A   Scattered Clouds
3:35 PM 66.4 °F 58.3 °F 75% 29.91 in 10.0 mi NNW 8.1 mph - N/A   Scattered Clouds
3:55 PM 67.3 °F 58.3 °F 73% 29.92 in 10.0 mi NW 9.2 mph - N/A   Mostly Cloudy
4:15 PM 64.9 °F 57.6 °F 77% 29.92 in 10.0 mi NNW 9.2 mph - N/A   Mostly Cloudy
4:35 PM 65.5 °F 57.6 °F 76% 29.92 in 10.0 mi North 8.1 mph - N/A   Scattered Clouds
4:55 PM 64.8 °F 57.6 °F 77% 29.93 in 10.0 mi NNW 6.9 mph - N/A   Scattered Clouds
5:15 PM 64.2 °F 57.6 °F 79% 29.93 in 10.0 mi North 10.4 mph - N/A   Mostly Cloudy
5:35 PM 63.9 °F 57.9 °F 81% 29.94 in 10.0 mi NNW 5.8 mph - N/A   Overcast
5:55 PM 63.1 °F 58.1 °F 84% 29.95 in 10.0 mi West 10.4 mph - N/A   Overcast
6:15 PM 61.9 °F 58.1 °F 87% 29.96 in 10.0 mi WNW 11.5 mph - N/A   Overcast
6:35 PM 61.2 °F 57.7 °F 88% 29.97 in 10.0 mi West 9.2 mph - N/A   Overcast
6:55 PM 61.0 °F 57.4 °F 88% 29.98 in 10.0 mi West 5.8 mph - N/A   Overcast
7:15 PM 60.8 °F 57.2 °F 88% 29.98 in 10.0 mi West 6.9 mph - N/A   Overcast
7:35 PM 60.3 °F 56.8 °F 88% 29.99 in 10.0 mi WNW 5.8 mph - N/A   Overcast
7:55 PM 60.3 °F 56.8 °F 88% 30.00 in 10.0 mi WNW 4.6 mph - N/A   Overcast
8:15 PM 59.9 °F 56.8 °F 90% 30.00 in 10.0 mi WNW 3.5 mph - N/A   Overcast
8:35 PM 59.4 °F 56.7 °F 91% 30.00 in 10.0 mi NW 5.8 mph - N/A   Overcast
8:55 PM 59.9 °F 56.5 °F 88% 30.01 in 10.0 mi NW 4.6 mph - N/A   Overcast
9:15 PM 59.7 °F 56.3 °F 88% 30.01 in 10.0 mi Calm Calm - N/A   Overcast
9:35 PM 59.2 °F 56.5 °F 91% 30.02 in 10.0 mi SW 3.5 mph - N/A   Overcast
9:55 PM 59.0 °F 56.5 °F 91% 30.03 in 10.0 mi West 3.5 mph - N/A   Overcast
10:15 PM 59.0 °F 56.5 °F 91% 30.04 in 10.0 mi WSW 3.5 mph - N/A   Overcast
10:35 PM 59.0 °F 56.3 °F 91% 30.04 in 10.0 mi Calm Calm - N/A   Overcast
10:55 PM 58.6 °F 56.3 °F 92% 30.05 in 10.0 mi Calm Calm - N/A   Overcast
11:15 PM 58.6 °F 56.3 °F 92% 30.06 in 10.0 mi West 3.5 mph - N/A   Overcast
11:35 PM 58.6 °F 55.9 °F 91% 30.05 in 10.0 mi West 5.8 mph - N/A   Overcast
11:55 PM 58.6 °F 55.8 °F 90% 30.05 in 10.0 mi WNW 5.8 mph - N/A   Overcast